Orbital Elements at Epoch 2459000.5 (2020-May-31.0) TDB
Reference: JPL 10 (heliocentric ecliptic J2000)
Element | Value | Uncertainty (1-sigma) | Units |
e | .1097222819747727 | 8.2379e-08 | |
a | 2.68075608551195 | 2.9147e-08 | au |
q | 2.386617410391819 | 2.2299e-07 | au |
i | 1.796724069294367 | 6.7939e-06 | deg |
node | 291.4345792841134 | 0.0003449 | deg |
peri | 219.1342798103773 | 0.00034841 | deg |
M | 197.0986335094458 | 4.6362e-05 | deg |
tp | 2459725.948528800549 (2022-May-26.44852880) | 0.00021056 | TDB |
period | 1603.187720241383 4.39 | 2.6147e-05 7.159e-08 | d yr |
n | .2245526181711253 | 3.6623e-09 | deg/d |
Q | 2.97489476063208 | 3.2345e-08 | au |
|
| | Orbit Determination Parameters
Additional Information
|